www.pogodaiklimat.ru

Погода и климат >> Архив погоды >> Австралия >> Северная территория >> Раббит Флат


ПОГОДА в Раббит Флат

  • Прогноз погоды в Раббит Флат
  • Монитор погоды в Раббит Флат

АРХИВ ПОГОДЫ в Раббит Флат

Время (UTC), дата Ветер
(напр.,м/с)
 
Видим.   Явления Облачность Т
(С)
Тd
(С)
f
(%)
Тe
(С)
Тes
(С)
Комфортность P
(гПа)
Po
(гПа)
Тmin
(С)
Tmax
(С)
R
(мм)
R24
(мм)
S
(см)
23 13.01 СЗ 5 н/о н/о +33.2 +18.5 42 +38 +38 очень
душно
1006.7 969.6 0.2
00 14.01 СЗ 4 н/о н/о +33.9 +18.4 40 +38 +38 очень
душно
1006.6 969.6
02 14.01 В 3 н/о н/о +39.0 +15.4 25 +40 +40 очень
душно
1005.4 968.3 +26.9
03 14.01 В 4 н/о н/о +39.1 +13.5 22 +39 +39 очень
жарко
1004.8 967.8
05 14.01 СВ 6 н/о н/о +41.6 +7.6 13 +39 +39 очень
жарко
1002.3 965.3
06 14.01 СВ 6 н/о н/о +42.3 +7.0 12 +40 +40 очень
жарко
1001.9 965.0
08 14.01 В 5 н/о н/о +40.2 +6.5 13 +38 +38 очень
жарко
1001.6 964.7
09 14.01 В 6 н/о н/о +40.4 +7.8 14 +38 +38 очень
жарко
1001.8 964.9
11 14.01 СВ 3 н/о н/о +35.3 +8.9 20 +34 +34 очень
жарко
1003.5 966.5
12 14.01 СВ 3 н/о н/о +35.1 +9.5 21 +34 +34 очень
жарко
1003.8 966.8
14 14.01 С 3 н/о н/о +31.5 +10.2 27 +31 +31 жарко 1004.7 967.6 +43.4
15 14.01 С 3 н/о н/о +30.2 +11.2 31 +31 +31 жарко 1004.4 967.4
17 14.01 С 3 н/о н/о +28.6 +12.1 36 +30 +30 жарко 1004.0 967.0
18 14.01 СЗ 3 н/о н/о +29.6 +13.8 38 +31 +31 жарко 1004.2 967.2
20 14.01 СЗ 3 н/о н/о +28.3 +14.9 44 +31 +31 душно 1005.7 968.6
21 14.01 СЗ 3 н/о н/о +27.7 +15.4 47 +31 +31 душно 1005.9 968.9
23 14.01 З 4 н/о н/о +34.3 +16.6 35 +37 +37 очень
душно
1007.8 970.6
00 15.01 З 5 н/о н/о +35.5 +16.3 32 +38 +38 очень
душно
1007.6 970.5
02 15.01 В 4 н/о н/о +38.9 +12.6 21 +39 +39 очень
жарко
1006.1 969.0 +27.3
03 15.01 СВ 3 н/о н/о +40.4 +13.1 20 +40 +40 очень
жарко
1005.4 968.4
05 15.01 В 4 н/о н/о +41.8 +7.7 13 +40 +40 очень
жарко
1003.2 966.2
06 15.01 В 5 н/о н/о +43.0 +7.5 12 +41 +41 опасность
перегрева
1002.7 965.8
08 15.01 В 5 н/о н/о +42.2 +6.9 12 +40 +40 очень
жарко
1001.8 964.8
09 15.01 В 5 н/о н/о +41.4 +6.3 12 +39 +39 очень
жарко
1001.7 964.8
11 15.01 СВ 4 н/о н/о +37.4 +9.9 19 +36 +36 очень
жарко
1003.2 966.2
12 15.01 СВ 4 н/о н/о +36.5 +9.9 20 +35 +35 очень
жарко
1003.3 966.4
14 15.01 С 3 н/о н/о +31.8 +11.6 29 +32 +32 жарко 1004.0 967.0 +43.6
15 15.01 С 3 н/о н/о +31.3 +12.2 31 +32 +32 жарко 1003.8 966.8
17 15.01 СЗ 7 н/о н/о +32.4 +13.6 32 +34 +34 очень
жарко
1003.0 966.0
18 15.01 СЗ 6 н/о н/о +32.0 +14.6 35 +34 +34 душно 1003.0 966.1
20 15.01 С 4 н/о н/о +30.1 +16.9 45 +34 +34 очень
душно
1005.5 968.4
21 15.01 С 3 н/о н/о +29.6 +17.4 48 +34 +34 очень
душно
1006.0 969.0
23 15.01 З 3 н/о {осадки} н/о +32.2 +17.7 42 +36 +36 очень
душно
1007.5 970.3 7
00 16.01 З 4 н/о н/о +32.6 +16.8 39 +36 +36 очень
душно
1007.3 970.2
02 16.01 З 5 н/о н/о +36.7 +14.6 27 +38 +38 очень
душно
1006.4 969.3 +24.8
03 16.01 З 4 н/о н/о +36.8 +14.1 26 +38 +38 очень
душно
1005.9 968.9
05 16.01 СЗ 4 н/о н/о +39.6 +12.4 20 +39 +39 очень
жарко
1002.1 965.1
06 16.01 ЮЗ 2 н/о н/о +40.5 +12.4 19 +40 +40 очень
жарко
1001.7 964.8
08 16.01 З 4 н/о н/о +34.9 +14.7 30 +36 +36 душно 1002.1 965.1
09 16.01 З 3 н/о н/о +35.0 +14.3 29 +36 +36 очень
жарко
1002.0 965.1
11 16.01 С 3 н/о н/о +30.7 +19.7 52 +37 +37 очень
душно
1004.6 967.5
12 16.01 З 4 н/о н/о +32.3 +17.7 42 +36 +36 очень
душно
1005.4 968.4
14 16.01 СЗ 4 н/о н/о +28.7 +19.1 56 +34 +34 очень
душно
1005.9 968.8 +41.1
15 16.01 СЗ 4 н/о н/о +28.7 +19.3 57 +34 +34 очень
душно
1005.3 968.3
17 16.01 СЗ 2 н/о н/о +26.1 +19.5 67 +32 +32 очень
душно
1003.7 966.7
18 16.01 СЗ 1 н/о н/о +25.5 +19.9 71 +31 +31 очень
душно
1003.5 966.6
20 16.01 штиль 0 н/о н/о +25.3 +21.2 78 +32 +32 очень
душно
1005.7 968.6
21 16.01 ЮЗ 2 н/о н/о +25.3 +21.0 77 +32 +32 очень
душно
1005.6 968.6
23 16.01 З 5 н/о н/о +33.2 +17.4 39 +37 +37 очень
душно
1007.2 970.0
00 17.01 З 4 н/о н/о +35.1 +17.3 35 +38 +38 очень
душно
1007.0 969.9
02 17.01 ЮВ 3 н/о н/о +38.4 +15.5 26 +40 +40 очень
душно
1006.1 969.0 +25.1
03 17.01 СЗ 3 н/о н/о +38.6 +15.7 26 +40 +40 очень
душно
1005.6 968.6
05 17.01 З 4 н/о н/о +40.0 +13.5 21 +40 +40 очень
душно
1002.3 965.3
06 17.01 Ю 3 н/о н/о +41.2 +13.0 19 +41 +41 опасность
перегрева
1001.6 964.7
08 17.01 СВ 4 н/о н/о +41.1 +11.2 17 +40 +40 очень
жарко
1000.4 963.5
09 17.01 Ю 9 н/о н/о +26.6 +21.1 72 +34 +34 очень
душно
1003.0 966.1
11 17.01 С 2 н/о {туман} н/о +28.4 +24.4 79 +40 +40 очень
душно
1003.6 966.6 8
12 17.01 С 3 н/о н/о +29.1 +24.0 74 +40 +40 очень
душно
1003.5 966.6
14 17.01 ЮЗ 2 н/о н/о +28.1 +26.1 89 +42 +42 опасность
перегрева
1005.1 968.0 +42.0
15 17.01 штиль 0 н/о н/о +28.3 +26.5 90 +44 +44 опасность
перегрева
1004.7 967.7
17 17.01 СЗ 2 н/о н/о +26.9 +24.2 85 +37 +37 очень
душно
1002.7 965.7
18 17.01 штиль 0 н/о н/о +27.0 +24.3 85 +38 +38 очень
душно
1002.6 965.7
20 17.01 Ю 2 н/о н/о +28.0 +22.0 70 +36 +36 очень
душно
1004.7 967.6
21 17.01 Ю 3 н/о н/о +27.5 +21.3 69 +35 +35 очень
душно
1005.4 968.4
23 17.01 ЮЗ 1 н/о н/о +31.2 +18.5 47 +36 +36 очень
душно
1006.1 969.0 8
00 18.01 СЗ 1 н/о н/о +32.5 +19.7 47 +38 +38 очень
душно
1006.0 969.0
02 18.01 З 4 н/о н/о +37.3 +15.7 28 +39 +39 очень
душно
1005.3 968.2 +25.1
03 18.01 З 5 н/о н/о +38.3 +14.8 25 +39 +39 очень
душно
1004.8 967.8
05 18.01 С 4 н/о н/о +39.8 +8.3 15 +38 +38 очень
жарко
1002.9 965.9
06 18.01 В 4 н/о н/о +41.2 +8.4 14 +39 +39 очень
жарко
1002.2 965.3
08 18.01 В 3 н/о н/о +41.2 +8.4 14 +39 +39 очень
жарко
1001.0 964.1
09 18.01 В 2 н/о н/о +40.0 +7.4 14 +38 +38 очень
жарко
1001.1 964.2
11 18.01 Ю 3 н/о н/о +37.0 +13.1 24 +37 +37 очень
жарко
1003.7 966.7
12 18.01 З 3 н/о н/о +35.8 +13.9 27 +37 +37 душно 1004.2 967.2
14 18.01 Ю 4 н/о н/о +33.8 +15.3 33 +36 +36 очень
душно
1005.7 968.6 +42.2
15 18.01 Ю 6 н/о н/о +31.9 +15.8 38 +35 +35 очень
душно
1005.2 968.2
17 18.01 З 4 н/о {туман} н/о +29.1 +18.2 52 +34 +34 очень
душно
1005.0 967.9
18 18.01 З 3 н/о н/о +28.5 +18.6 55 +34 +34 очень
душно
1004.8 967.8
20 18.01 Ю 1 н/о {осадки} н/о +25.1 +23.2 89 +34 +34 очень
душно
1006.1 969.0
21 18.01 Ю 3 н/о н/о +25.2 +23.1 88 +34 +34 очень
душно
1006.5 969.5
23 18.01 СВ 1 н/о {туман} н/о +32.3 +20.2 49 +39 +39 очень
душно
1007.6 970.4 3
00 19.01 СВ 2 н/о н/о +34.1 +19.4 42 +39 +39 очень
душно
1007.4 970.3
02 19.01 Ю 3 н/о н/о +38.5 +14.3 24 +39 +39 душно 1006.6 969.5 +24.2
03 19.01 З 3 н/о н/о +39.5 +13.8 22 +40 +40 очень
душно
1006.1 969.1
05 19.01 СЗ 2 н/о н/о +40.8 +10.0 16 +39 +39 очень
жарко
1004.0 967.0
06 19.01 В 5 н/о н/о +41.5 +8.6 14 +39 +39 очень
жарко
1003.5 966.6
08 19.01 С 6 н/о н/о +40.9 +9.2 15 +39 +39 очень
жарко
1002.6 965.6
09 19.01 СВ 6 н/о н/о +40.2 +9.6 16 +39 +39 очень
жарко
1002.5 965.6
11 19.01 С 8 н/о н/о +34.8 +13.6 28 +36 +36 душно 1005.4 968.3
12 19.01 С 3 н/о н/о +34.2 +13.1 28 +35 +35 очень
жарко
1005.4 968.4
14 19.01 Ю 6 н/о н/о +31.4 +18.7 47 +36 +36 очень
душно
1007.3 970.1 +43.1
15 19.01 ЮВ 4 н/о н/о +32.1 +16.0 38 +35 +35 очень
душно
1007.4 970.3
17 19.01 З 3 н/о н/о +28.1 +19.6 60 +34 +34 очень
душно
1005.8 968.7
18 19.01 СЗ 1 н/о н/о +27.4 +20.2 65 +34 +34 очень
душно
1005.5 968.5
20 19.01 штиль 0 н/о н/о +26.3 +22.4 79 +34 +34 очень
душно
1006.5 969.4
21 19.01 В 9 н/о н/о +25.2 +19.1 69 +30 +30 душно 1009.0 971.8
23 19.01 С 2 н/о {туман} н/о +28.3 +22.5 71 +37 +37 очень
душно
1008.3 971.1 2
00 20.01 С 3 н/о н/о +29.9 +21.0 59 +37 +37 очень
душно
1008.3 971.2
02 20.01 СВ 2 н/о н/о +36.7 +14.6 27 +38 +38 очень
душно
1007.3 970.1 +23.7
03 20.01 ЮВ 5 н/о н/о +38.5 +13.0 22 +38 +38 очень
жарко
1006.6 969.6
05 20.01 В 5 н/о н/о +41.4 +7.4 13 +39 +39 очень
жарко
1004.0 967.0
06 20.01 С 3 н/о н/о +40.8 +7.0 13 +38 +38 очень
жарко
1003.5 966.6
08 20.01 ЮВ 5 н/о н/о +41.9 +5.4 11 +39 +39 очень
жарко
1002.2 965.2
09 20.01 ЮВ 5 н/о н/о +41.3 +4.9 11 +38 +38 очень
жарко
1002.3 965.4
11 20.01 СВ 2 н/о н/о +33.6 +12.6 28 +34 +34 очень
жарко
1004.1 967.1
12 20.01 С 2 н/о н/о +32.0 +14.2 34 +34 +34 душно 1004.2 967.2
14 20.01 З 2 н/о н/о +30.5 +15.0 39 +33 +33 душно 1003.9 966.9 +42.8
15 20.01 З 2 н/о н/о +29.9 +18.0 49 +34 +34 очень
душно
1004.0 967.0
17 20.01 В 4 н/о н/о +30.6 +14.7 38 +33 +33 душно 1003.9 966.9
18 20.01 С 5 н/о н/о +31.3 +13.6 34 +33 +33 жарко 1004.1 967.1
20 20.01 С 6 н/о н/о +29.2 +19.8 57 +35 +35 очень
душно
1003.9 966.9
21 20.01 С 6 н/о н/о +29.1 +20.0 58 +35 +35 очень
душно
1004.3 967.3

 

Местоположение метеостанции Раббит Флат (Северная территория, Австралия): широта -20.18 долгота 130.02 высота над уровнем моря 339 м.

В архиве по умолчанию представлена погода в Раббит Флат за последнюю неделю. Архивные данные за месяц целиком и за предыдущие месяцы, начиная с января 2011 года, Вы можете получить, выбрав интересующий диапазон дат из раскрывающегося списка и нажав кнопку "Ввод!".


*Определитесь, кто Вы:
робот инопланетянин человек

Внимание! Время в таблицах - всемирное. Для получения местного времени необходимо прибавить поправку, которая равна 9.5 ч.

Смотрите также архив погоды в соседних городах и на ближайших метеорологических станциях:

Погода в Ладжаману (Северная территория, Австралия) (216 км)
Погода в Холс Крик (Западная Австралия, Австралия) (329 км)
Погода в Кинторе (Северная территория, Австралия) (350 км)
Погода в Аэропорту Аргайл (Западная Австралия, Австралия) (428 км)
Погода в Виктория-Ривер (Северная территория, Австралия) (433 км)
Погода в Теннант-Крике (Северная территория, Австралия) (439 км)
Погода на Виноградной ферма (Северная территория, Австралия) (451 км)
Погода в Кунунарре (Западная Австралия, Австралия) (509 км)
Погода в Фицрой-Кроссинге (Западная Австралия, Австралия) (519 км)
Погода на Базе ВВС Delamere Weapons Range (Северная территория, Австралия) (532 км)

Пояснения к столбцам:

Ветер - указаны скорость ветра в м/с - средняя за 10 мин, порывы в срок и между сроками (в фигурных скобках) и направление, откуда дует ветер: С - северный, СВ - северо-восточный, В - восточный, ЮВ - юго-восточный, Ю - южный, ЮЗ - юго-западный, З - западный, СЗ - северо-западный.
Видимость - горизонтальная дальность видимости в метрах или километрах. При видимости от 1 до 10 км при отсутствии осадков обычно наблюдается дымка, при ухудшении видимости до 1 км и менее - туман. В сухую погоду видимость может ухудшаться дымом, пылью или мглою.
Явления - указаны атмосферные явления, наблюдавшиеся в срок или в последний час перед сроком; фигурными скобками обозначены явления, наблюдавшиеся между сроками (за 1-3 часа до срока); квадратными скобками обозначены град или гололедные отложения с указанием их диаметра в мм.
Облачность - указаны через наклонную черту общая и нижняя облачность в баллах и высота нижней границы облаков в метрах; квадратными скобками обозначены формы облаков: Ci - перистые, Cs - перисто-слоистые, Cc - перисто-кучевые, Ac - высококучевые, As - высокослоистые, Sc - слоисто-кучевые, Ns - слоисто-дождевые, Cu - кучевые, Cb - кучево-дождевые. Подробнее классификацию облаков см. в Атласе облаков (PDF).
T - Температура воздуха - температура, измеренная на высоте 2 м над землей.
Td - Температура точки росы - температура, при понижении до которой содержащийся в воздухе водяной пар достигнет насыщения.
f - Относительная влажность воздуха - влажноcть воздуха, измеренная на высоте 2 м над землей.
Te - Эффективная температура - температура, которую ощущает одетый по сезону человек в тени. Характеристика душности погоды. При расчете учитывается влияние влажности воздуха и скорости ветра на теплоощущения человека.
Tes - Эффективная температура на солнце - температура, которую ощущает человек, с поправкой на солнечный нагрев. Характеристика знойности погоды. Зависит от высоты солнца над горизонтом, облачности и скорости ветра. Ночью, в пасмурную погоду, а также при ветре 12 м/с и более поправка равна нулю.
P - Атмосферное давление - приведенное к уровню моря атмосферное давление.
Po - Атмосферное давление - измеренное на уровне метеостанции атмосферное давление.
Tmin - Минимальная температура - минимум температуры воздуха на высоте 2 м над землей.
Tmax - Максимальная температура - максимум температуры воздуха на высоте 2 м над землей.
R - Количество осадков - Количество выпавших осадков за период времени, мм. При наведении курсора мыши на число - период времени, за который выпало указанное количество осадков.
R24 - Количество осадков - Количество выпавших осадков за 24 часа, мм.
S - Снежный покров - Высота снежного покрова, см. При наведении курсора мыши на число - состояние снежного покрова и степень покрытия местности в баллах.